User: anonymous   Login
Location: Joplin
(37.0842°N, 94.5131°W)
Time: 08:17:04
(UTC-06:00)
Language:

STARLINK-3088 - Orbit

View from above orbital plane
View from above orbital plane
View from above satellite
View from above satellite

Ground track
Ground track

The orbit data is extracted from the following two-line orbital elements,

1 49163U 21082AK  21331.25002315  .00063416  00000-0  53037-3 0  9995
2 49163  69.9983 278.4629 0003531 285.1117 205.2648 15.69685472 12906
Epoch (UTC): 27 November 2021 06:00:02
Eccentricity: 0.0003531
inclination: 69.9983°
perigee height: 357 km
apogee height: 362 km
right ascension of ascending node: 278.4629°
argument of perigee: 285.1117°
revolutions per day: 15.69685472
mean anomaly at epoch: 205.2648°
orbit number at epoch: 1290

The dashed part of the orbit path shows where the satellite is in the earth's shadow,  

DLR